Wind_Speed
5 4 4 4 4 4 5 4 4 4 4 4 4 4 5 5 5 3 3 3 3 2 1 1 1 3 3 3 2 3 4 4 4 4 4 4 5 6 6 5 5 5 5 6 6 5 5 5 5
5 4 4 4 4 4 5 5 5 6 5 5 5 5 5 5 5 4 4 4 3 2 1 0 2 3 2 2 2 3 5 5 5 5 5 5 5 6 6 6 5 5 5 6 6 6 6 6 6
5 4 4 4 4 4 5 5 5 6 6 5 5 5 5 6 5 5 4 4 3 3 2 2 2 2 2 2 2 3 4 5 6 5 5 5 6 6 6 6 5 5 6 6 7 7 7 8 8
5 5 4 4 4 5 5 5 5 5 5 5 6 6 6 6 5 5 4 4 4 3 3 3 3 3 3 2 2 2 3 5 6 5 5 6 6 6 6 6 6 6 7 7 7 7 8 9 9
5 5 5 4 4 4 4 5 5 5 5 5 6 5 5 5 5 5 5 4 4 4 4 4 3 4 4 3 2 2 3 4 5 5 5 6 7 6 6 6 7 8 7 7 8 8 8 8 9
5 5 5 4 5 5 5 5 5 4 5 5 5 5 5 6 5 5 5 5 5 5 4 4 4 4 4 4 4 3 3 4 5 5 5 6 7 7 6 7 8 8 8 8 9 9 9 9 10
6 6 5 5 5 5 5 6 6 5 5 5 5 5 5 6 5 5 5 6 6 5 5 5 5 5 5 4 5 5 5 5 5 6 6 7 7 7 7 7 8 8 8 9 9 9 9 10 10
6 6 6 6 5 5 6 6 5 5 5 5 5 4 5 5 4 5 6 6 6 6 6 6 6 6 6 5 5 6 6 6 6 7 7 8 8 7 7 8 8 9 9 9 9 9 9 10 10
6 7 7 6 6 6 6 6 6 5 6 5 5 5 5 5 4 5 5 6 6 6 7 7 7 7 7 7 6 6 7 7 7 7 8 8 8 8 9 9 9 10 9 9 9 10 10 10 9
7 7 8 7 7 6 7 7 7 6 5 5 5 5 5 5 5 5 5 6 6 6 7 7 7 7 7 7 7 7 7 7 7 7 8 8 9 9 10 10 10 10 10 9 10 10 10 10 10
7 8 8 8 7 7 7 8 7 7 6 6 6 6 6 6 5 6 6 6 7 6 7 7 7 7 7 7 7 8 7 8 8 8 9 9 9 10 10 10 11 11 11 11 11 11 11 11 11
8 8 8 7 7 7 7 7 7 8 7 7 7 7 6 6 6 6 6 6 6 6 6 6 6 7 7 7 7 8 8 8 9 9 10 10 10 10 10 11 11 11 11 11 11 11 11 10 10
8 8 8 8 8 7 7 7 7 8 8 8 7 7 7 6 6 7 7 7 7 6 6 6 6 7 7 8 8 8 9 9 10 10 10 10 10 11 11 11 11 11 11 11 12 12 11 11 11
9 9 9 8 8 7 7 7 7 8 8 8 8 7 7 7 7 7 7 7 7 7 6 6 6 6 7 8 8 8 8 9 9 9 9 10 10 11 11 12 12 12 12 12 12 12 12 12 11
10 10 10 10 9 9 8 8 8 8 8 8 8 8 8 7 7 7 7 7 8 8 8 7 7 7 7 7 8 8 8 9 9 10 10 10 10 11 12 12 12 12 12 12 12 12 12 12 12
12 11 11 11 11 10 10 9 9 9 9 9 8 8 9 8 8 8 8 8 8 8 9 9 9 9 8 8 8 8 8 9 9 10 10 10 11 11 11 11 11 12 12 12 13 13 13 13 13
13 12 12 12 12 12 11 11 10 10 10 10 10 10 10 10 9 9 9 9 9 9 10 10 10 10 9 9 9 9 9 10 10 10 10 10 10 11 11 11 11 12 13 13 13 13 14 13 13
12 13 13 14 13 13 13 12 11 11 11 11 11 11 11 11 10 10 10 10 10 10 10 11 11 11 10 10 10 10 10 10 11 11 11 11 11 11 11 11 12 12 13 14 14 14 14 14 14
13 13 14 14 14 14 13 13 12 12 12 12 12 12 12 12 11 11 11 10 11 11 11 11 11 11 11 11 10 10 10 10 11 11 11 11 11 12 12 12 12 12 13 14 14 14 14 15 15
15 15 14 15 15 15 14 14 13 13 13 13 13 13 13 13 12 12 11 11 10 11 11 11 11 12 11 11 11 11 11 10 11 11 12 12 12 13 13 13 13 13 13 13 14 15 15 15 15
15 15 15 15 15 15 15 14 14 13 13 13 13 13 13 13 13 12 12 11 11 11 12 12 12 12 12 11 11 11 11 11 11 12 12 12 13 14 14 14 14 14 14 14 14 15 15 15 15
16 16 15 15 15 15 15 15 15 15 14 14 13 13 13 13 14 13 13 13 13 12 12 12 12 12 12 12 11 11 12 11 12 12 13 13 14 14 14 15 15 14 14 15 15 15 16 16 16
16 16 16 16 15 15 15 15 15 16 15 14 14 14 14 14 14 14 14 14 14 13 13 13 12 12 12 12 12 12 12 12 13 14 14 13 14 14 14 15 15 15 15 15 15 16 16 16 16
16 17 17 16 16 16 16 16 15 15 16 15 15 14 14 15 15 15 15 15 14 14 13 13 13 13 13 13 13 13 13 13 14 14 14 14 14 14 15 15 16 16 16 16 16 16 17 17 18
17 17 17 17 17 17 16 17 16 15 15 15 15 15 15 15 16 16 16 15 15 15 14 14 14 13 13 13 13 13 14 14 14 14 14 14 15 15 15 16 16 16 16 17 17 17 18 18 19
16 17 17 17 17 17 17 17 17 16 15 15 16 16 16 16 17 17 17 16 15 15 15 15 14 14 14 14 14 14 15 14 15 15 15 15 16 16 16 16 17 17 17 18 18 19 19 19 20
17 17 17 17 16 15 17 17 17 16 16 16 17 16 16 16 16 16 17 16 16 16 16 16 16 15 15 16 16 15 15 15 16 16 16 16 16 17 17 17 18 19 19 19 19 20 20 20 20
15 16 16 16 16 15 16 16 17 16 17 17 18 17 17 16 17 17 17 17 17 18 18 17 16 17 16 17 17 17 16 16 17 16 16 16 17 17 18 19 20 20 20 21 21 21 20 20 20
15 15 16 17 16 16 16 17 17 17 17 17 17 18 18 18 17 17 17 18 18 18 19 18 17 17 17 17 18 18 17 17 17 17 17 17 17 18 19 20 21 21 21 21 21 21 21 21 21
14 15 16 17 17 17 17 17 17 17 18 17 17 18 18 19 19 19 18 18 19 18 18 19 18 18 18 18 18 18 18 18 18 18 18 19 19 20 21 21 21 21 22 22 22 22 22 22 23
Wind_Direction
206 208 206 201 202 205 208 211 205 198 195 197 200 197 196 195 192 197 199 211 230 246 298 36 119 148 164 180 205 216 207 201 200 207 208 201 202 212 214 214 219 224 231 237 241 244 246 248 247
210 212 211 209 209 213 214 213 201 200 200 196 198 199 196 194 193 199 205 215 226 225 228 194 165 172 182 214 252 248 229 215 205 209 218 219 214 216 216 221 225 229 237 242 243 247 251 253 256
210 212 211 211 212 213 213 206 199 202 205 200 198 200 197 195 196 204 209 217 223 220 226 234 227 217 228 243 262 252 226 209 207 209 221 226 223 222 221 219 226 234 242 247 249 251 253 256 257
212 213 211 208 209 211 212 203 202 204 207 206 201 199 197 203 207 213 220 226 233 235 238 244 242 249 252 248 258 242 212 207 213 218 229 231 232 232 227 229 236 244 249 251 254 255 256 256 255
212 212 215 213 215 215 212 204 201 200 199 199 202 199 203 209 214 220 224 229 234 237 242 246 245 249 253 256 257 245 226 221 218 224 231 238 242 245 243 238 247 253 255 255 258 260 260 257 256
213 212 214 214 215 213 213 205 201 200 195 198 205 205 207 215 220 224 229 232 232 239 240 242 241 245 251 253 246 247 237 235 231 230 235 244 248 251 252 248 250 252 254 258 259 261 263 261 259
212 214 216 218 212 209 206 200 197 200 202 208 214 214 212 219 227 234 238 242 241 242 242 242 242 243 248 248 246 244 245 246 245 240 241 246 251 248 246 252 252 252 257 259 261 264 266 265 262
219 223 219 219 215 211 208 203 206 208 212 219 219 216 213 219 231 240 242 245 244 243 244 245 245 245 245 245 244 247 249 250 251 250 250 250 250 251 254 257 255 255 258 259 259 262 269 268 264
221 222 220 218 216 213 210 209 213 218 221 224 222 219 222 227 234 242 245 247 247 245 245 244 244 243 243 245 247 251 251 252 253 254 255 257 257 258 257 258 260 259 258 262 266 270 270 270 265
223 223 223 222 218 216 217 218 219 222 225 228 225 224 231 235 239 244 246 249 251 249 249 246 245 241 243 247 251 255 256 255 255 254 256 259 261 262 264 265 265 266 267 269 269 271 272 273 273
227 225 229 229 225 222 223 225 226 225 229 228 230 233 236 243 251 252 250 251 252 252 253 251 249 245 245 248 252 257 260 257 255 258 259 262 263 264 265 267 267 268 270 271 273 274 274 277 277
226 226 229 228 224 224 225 229 231 229 230 233 235 237 241 250 257 258 254 254 251 250 249 248 252 251 250 251 254 257 259 261 263 263 264 265 268 267 267 268 269 270 272 272 274 276 277 280 281
228 227 228 227 225 225 230 230 232 231 231 234 239 242 247 253 257 256 257 256 257 256 249 244 251 253 251 252 256 258 259 265 269 270 267 267 268 269 271 273 274 272 273 272 272 274 274 276 279
229 227 228 227 227 228 233 236 234 232 234 237 241 246 250 254 256 256 257 256 254 255 255 251 251 254 255 258 261 263 265 268 269 270 269 269 271 272 273 275 275 274 274 272 271 272 273 273 275
232 231 231 230 231 233 236 240 237 234 234 236 242 249 253 256 255 254 254 254 255 253 253 255 255 256 258 261 265 270 274 274 272 273 274 275 274 274 274 275 275 274 274 272 271 272 271 273 275
233 234 234 231 229 233 235 238 240 235 234 238 245 250 252 255 256 255 255 256 255 254 253 255 256 258 260 264 267 270 274 275 274 278 278 277 278 278 276 276 276 277 277 275 274 273 273 274 274
235 236 235 233 232 233 236 237 240 241 239 241 246 250 255 259 258 256 256 257 257 258 256 256 257 259 260 261 264 268 271 271 273 279 279 280 279 277 280 280 282 281 279 278 276 274 272 271 272
235 237 237 236 235 236 239 240 244 245 244 243 246 250 255 259 259 257 256 258 259 259 258 258 258 260 259 260 264 266 269 272 274 275 276 280 280 280 283 281 281 280 279 277 276 274 272 269 269
233 237 239 238 238 238 240 242 244 247 246 248 250 252 254 256 257 258 257 259 260 260 261 261 259 259 259 262 265 267 271 275 276 277 278 280 280 281 282 280 279 280 280 279 275 272 271 269 268
231 235 238 239 239 241 241 240 243 245 246 249 253 253 253 254 256 257 258 260 263 264 264 265 264 259 260 264 269 270 272 276 280 281 283 285 284 282 282 281 281 281 282 281 278 273 268 267 266
234 235 237 242 241 244 245 243 240 242 245 247 251 253 252 253 254 257 259 262 264 264 265 265 264 262 263 267 269 272 273 276 280 282 284 287 286 284 282 279 282 282 282 281 280 277 271 267 266
236 238 240 242 243 245 245 246 243 245 245 246 249 252 253 253 253 256 258 262 265 266 266 265 264 264 265 267 270 274 277 280 282 284 285 286 286 285 284 282 283 283 282 283 281 277 273 268 265
236 239 241 243 243 244 245 248 245 245 245 246 248 250 252 254 256 259 260 263 267 269 268 266 265 264 266 269 272 275 279 281 283 284 285 285 284 284 285 286 283 283 282 283 285 281 275 271 266
238 240 241 244 244 243 244 247 246 246 246 247 249 250 252 254 257 260 261 263 265 267 268 267 269 269 268 270 272 275 277 280 284 285 284 283 282 282 284 285 284 283 280 279 281 281 277 272 270
238 238 241 245 245 244 245 246 246 247 244 244 248 251 252 255 258 260 260 262 264 265 267 269 269 269 270 270 271 274 276 280 284 284 283 282 281 281 283 286 286 284 280 279 279 279 278 274 272
238 238 240 246 247 248 246 246 246 247 245 246 248 250 252 255 258 260 261 261 262 263 265 267 268 267 270 272 272 274 276 280 283 284 283 282 281 281 281 284 286 285 283 282 281 280 278 274 271
237 240 242 246 248 249 250 250 251 250 249 249 247 248 251 254 256 259 261 262 262 262 264 267 267 270 274 275 275 275 277 280 284 284 283 282 282 282 281 283 286 288 286 285 283 282 280 276 272
236 236 243 246 248 252 254 255 255 253 251 251 251 251 253 254 257 260 262 263 264 264 265 267 270 272 276 277 276 275 277 280 284 283 284 284 285 285 284 284 286 287 286 284 282 280 279 276 272
236 237 241 245 249 253 259 262 260 257 254 255 255 256 256 256 257 260 262 264 265 266 267 267 270 274 275 275 276 275 276 280 283 283 284 283 285 287 286 286 287 287 286 286 282 279 277 275 271
238 238 242 248 253 256 258 262 263 261 258 255 255 257 259 259 258 259 261 264 265 266 267 268 271 273 275 276 278 278 278 280 281 283 283 283 285 288 288 287 288 289 287 286 284 280 277 275 273
Height
5867 5867 5868 5869 5871 5871 5870 5871 5871 5871 5871 5872 5872 5872 5872 5873 5874 5876 5874 5872 5872 5871 5869 5866 5862 5862 5864 5866 5867 5867 5867 5868 5869 5870 5870 5870 5871 5871 5871 5871 5872 5872 5872 5872 5872 5872 5872 5872 5871
5866 5867 5868 5869 5869 5869 5870 5870 5870 5870 5871 5870 5871 5871 5872 5872 5872 5872 5872 5872 5871 5870 5870 5868 5866 5866 5866 5866 5865 5863 5863 5865 5867 5869 5869 5869 5870 5870 5871 5871 5871 5871 5871 5871 5871 5871 5871 5871 5871
5865 5866 5868 5868 5868 5869 5869 5869 5869 5869 5870 5870 5870 5870 5871 5871 5871 5871 5871 5871 5871 5870 5870 5869 5868 5868 5867 5866 5863 5859 5859 5862 5866 5868 5869 5869 5869 5869 5870 5870 5870 5870 5870 5870 5870 5870 5870 5870 5870
5864 5866 5867 5868 5867 5868 5868 5868 5868 5869 5869 5869 5869 5870 5870 5870 5870 5870 5870 5870 5870 5870 5870 5869 5869 5868 5868 5866 5864 5861 5861 5863 5866 5867 5868 5868 5868 5869 5869 5869 5869 5869 5869 5869 5869 5869 5869 5869 5869
5863 5865 5866 5866 5866 5867 5867 5867 5868 5868 5868 5868 5869 5869 5869 5869 5869 5869 5869 5869 5869 5869 5869 5869 5869 5868 5868 5867 5866 5864 5864 5865 5866 5867 5868 5868 5868 5868 5868 5868 5868 5868 5868 5868 5868 5868 5868 5867 5867
5863 5864 5865 5865 5865 5866 5866 5866 5867 5867 5867 5867 5868 5868 5868 5868 5868 5868 5868 5868 5868 5868 5868 5869 5868 5868 5868 5867 5867 5866 5866 5866 5867 5867 5867 5867 5867 5867 5867 5867 5867 5867 5867 5867 5867 5866 5866 5866 5865
5862 5863 5863 5864 5864 5865 5865 5866 5866 5866 5866 5867 5867 5867 5867 5867 5867 5867 5867 5867 5867 5868 5868 5868 5868 5868 5867 5867 5867 5866 5866 5866 5866 5866 5866 5866 5866 5866 5866 5866 5866 5866 5866 5865 5865 5864 5864 5864 5863
5860 5862 5862 5862 5863 5864 5864 5865 5865 5865 5866 5866 5866 5866 5866 5866 5866 5866 5866 5866 5867 5867 5867 5867 5867 5866 5866 5866 5866 5866 5866 5865 5865 5865 5865 5865 5865 5864 5864 5864 5864 5864 5864 5863 5863 5863 5862 5862 5861
5859 5861 5861 5861 5862 5863 5863 5864 5864 5864 5865 5865 5865 5865 5865 5865 5865 5865 5865 5865 5865 5865 5865 5866 5865 5865 5865 5865 5865 5865 5865 5864 5864 5864 5864 5864 5864 5863 5863 5863 5863 5862 5862 5861 5861 5861 5860 5860 5859
5857 5859 5859 5860 5861 5861 5862 5862 5863 5863 5863 5864 5864 5864 5864 5864 5865 5864 5864 5864 5864 5864 5864 5864 5864 5864 5864 5864 5864 5864 5863 5863 5863 5863 5863 5862 5862 5862 5862 5861 5861 5861 5860 5860 5859 5859 5858 5858 5858
5855 5857 5857 5858 5859 5860 5860 5861 5861 5862 5862 5863 5863 5863 5863 5863 5864 5863 5863 5863 5863 5863 5863 5863 5863 5863 5863 5863 5863 5863 5862 5862 5862 5861 5861 5861 5861 5860 5860 5860 5859 5859 5858 5858 5858 5857 5857 5856 5856
5854 5854 5855 5856 5857 5858 5859 5859 5860 5861 5861 5861 5862 5862 5862 5862 5862 5862 5862 5862 5862 5861 5861 5861 5861 5861 5861 5861 5861 5861 5861 5861 5860 5860 5860 5859 5859 5859 5858 5858 5857 5857 5856 5856 5856 5855 5855 5854 5854
5852 5852 5853 5854 5855 5856 5857 5858 5858 5859 5860 5860 5860 5861 5861 5861 5861 5861 5860 5860 5860 5860 5860 5860 5860 5860 5860 5860 5860 5860 5859 5859 5859 5858 5858 5857 5857 5856 5856 5855 5855 5855 5854 5854 5853 5853 5853 5852 5852
5850 5851 5851 5853 5854 5855 5855 5856 5857 5857 5858 5858 5859 5859 5859 5859 5859 5859 5859 5859 5859 5859 5859 5859 5859 5859 5859 5858 5858 5858 5857 5857 5857 5856 5856 5855 5855 5854 5854 5853 5852 5852 5852 5851 5851 5851 5850 5850 5849
5847 5849 5850 5851 5852 5853 5854 5855 5855 5856 5856 5857 5857 5857 5858 5858 5858 5858 5858 5858 5857 5857 5857 5857 5857 5857 5857 5857 5856 5856 5855 5855 5854 5854 5853 5853 5852 5852 5851 5851 5850 5849 5849 5849 5848 5848 5848 5847 5847
5845 5846 5848 5849 5850 5851 5854 5853 5853 5854 5854 5855 5855 5856 5856 5856 5856 5856 5856 5856 5856 5856 5856 5856 5856 5856 5855 5855 5855 5854 5854 5853 5852 5852 5851 5851 5850 5849 5848 5848 5847 5846 5846 5846 5845 5845 5845 5844 5844
5842 5844 5845 5847 5847 5848 5850 5851 5851 5851 5852 5853 5853 5854 5854 5854 5854 5854 5854 5854 5854 5854 5854 5854 5854 5854 5853 5853 5853 5852 5851 5851 5850 5850 5849 5848 5847 5846 5845 5845 5844 5843 5842 5842 5842 5841 5841 5841 5841
5840 5841 5843 5844 5845 5846 5847 5848 5849 5849 5850 5850 5851 5851 5852 5852 5852 5852 5852 5852 5852 5852 5852 5851 5851 5851 5851 5851 5850 5850 5849 5848 5848 5847 5846 5845 5844 5843 5842 5841 5841 5840 5839 5838 5838 5837 5837 5837 5837
5837 5838 5840 5841 5841 5843 5844 5845 5846 5846 5847 5848 5848 5849 5849 5849 5849 5850 5850 5850 5850 5849 5849 5849 5849 5849 5848 5848 5848 5847 5847 5846 5845 5844 5843 5842 5841 5840 5839 5838 5837 5836 5835 5834 5834 5833 5833 5833 5833
5833 5835 5836 5838 5839 5840 5841 5842 5843 5843 5844 5845 5846 5846 5846 5847 5847 5847 5847 5847 5847 5847 5847 5846 5846 5846 5846 5845 5845 5844 5844 5843 5842 5841 5840 5839 5838 5837 5836 5835 5834 5833 5832 5831 5830 5829 5829 5829 5829
5830 5832 5833 5834 5835 5836 5838 5839 5840 5841 5841 5842 5843 5843 5843 5844 5844 5844 5844 5844 5844 5844 5844 5843 5843 5843 5843 5842 5842 5842 5841 5840 5839 5838 5837 5836 5835 5833 5832 5831 5830 5829 5828 5828 5827 5826 5825 5825 5825
5826 5828 5830 5831 5832 5833 5835 5836 5837 5837 5838 5839 5840 5840 5840 5841 5841 5841 5841 5841 5841 5841 5841 5840 5840 5839 5839 5839 5839 5838 5838 5837 5836 5835 5834 5832 5831 5830 5829 5828 5827 5826 5825 5824 5823 5822 5821 5821 5821
5823 5824 5826 5827 5828 5830 5831 5832 5834 5834 5835 5836 5837 5837 5837 5837 5838 5838 5838 5838 5838 5838 5837 5837 5837 5836 5836 5836 5835 5835 5834 5833 5832 5831 5830 5829 5827 5826 5825 5824 5823 5822 5821 5820 5819 5818 5817 5817 5817
5819 5821 5822 5823 5825 5826 5827 5829 5830 5831 5831 5832 5833 5833 5834 5834 5834 5834 5835 5835 5835 5834 5834 5834 5833 5833 5832 5832 5832 5831 5830 5829 5828 5827 5826 5825 5824 5823 5821 5820 5819 5818 5817 5816 5815 5814 5813 5813 5812
5815 5817 5819 5819 5820 5822 5823 5824 5826 5827 5827 5828 5829 5830 5830 5830 5831 5831 5831 5831 5831 5831 5831 5830 5830 5829 5829 5828 5828 5827 5826 5825 5824 5823 5822 5821 5820 5819 5818 5816 5815 5814 5813 5812 5811 5810 5809 5808 5806
5810 5813 5815 5816 5817 5818 5819 5819 5822 5823 5823 5824 5825 5825 5826 5826 5827 5827 5827 5827 5827 5827 5827 5827 5826 5825 5825 5824 5823 5823 5822 5821 5820 5819 5817 5816 5815 5814 5813 5812 5811 5809 5808 5807 5806 5805 5803 5802 5801
5806 5808 5810 5812 5813 5814 5814 5816 5817 5818 5819 5819 5820 5821 5821 5822 5822 5822 5823 5823 5823 5823 5823 5822 5822 5821 5820 5819 5819 5818 5818 5816 5815 5814 5813 5812 5811 5810 5808 5807 5806 5804 5803 5801 5800 5799 5798 5796 5795
5802 5804 5806 5807 5808 5810 5811 5812 5813 5814 5814 5815 5815 5816 5817 5817 5818 5818 5818 5818 5818 5818 5818 5817 5817 5816 5816 5815 5814 5813 5813 5812 5810 5809 5808 5807 5806 5805 5803 5802 5800 5799 5797 5796 5794 5793 5792 5791 5790
5798 5800 5801 5803 5804 5806 5807 5810 5808 5809 5810 5810 5811 5811 5812 5813 5813 5813 5813 5813 5813 5813 5813 5813 5812 5812 5811 5810 5809 5808 5807 5807 5806 5804 5803 5802 5801 5800 5798 5796 5795 5793 5792 5790 5788 5787 5786 5785 5784
5793 5796 5798 5800 5800 5801 5802 5806 5803 5803 5804 5805 5805 5806 5807 5807 5808 5808 5808 5808 5808 5808 5808 5808 5807 5807 5806 5805 5804 5803 5802 5801 5800 5799 5798 5797 5796 5794 5792 5791 5789 5787 5785 5784 5782 5781 5780 5779 5778